| time (UTC) | temp F | wind direction | speed MPH | gust MPH | rain 1hr in | rain 24hr in | rain mn in | humidity % | barometer mb |
| 20260510222044 | 48 | 331 | 1.0 | 5.0 | 0.00 | 0.00 | 0.00 | 73 | 1011.4 |
| 20260510221545 | 48 | 302 | 1.0 | 6.0 | 0.00 | 0.00 | 0.00 | 73 | 1011.5 |
| 20260510221044 | 48 | 339 | 1.0 | 6.0 | 0.00 | 0.00 | 0.00 | 76 | 1011.5 |
| 20260510220542 | 48 | 322 | 2.0 | 6.0 | 0.00 | 0.00 | 0.00 | 73 | 1011.5 |
| 20260510220043 | 48 | 11 | 2.0 | 6.0 | 0.00 | 0.00 | 0.00 | 73 | 1011.6 |
| 20260510215541 | 48 | 31 | 2.0 | 5.0 | 0.00 | 0.00 | 0.00 | 73 | 1011.8 |
| 20260510215039 | 48 | 86 | 2.0 | 5.0 | 0.00 | 0.00 | 0.00 | 73 | 1011.8 |
| 20260510214540 | 48 | 288 | 2.0 | 7.0 | 0.00 | 0.00 | 0.00 | 73 | 1011.9 |
| 20260510214040 | 48 | 355 | 2.0 | 7.0 | 0.00 | 0.00 | 0.00 | 74 | 1011.9 |
| 20260510213538 | 48 | 355 | 2.0 | 8.0 | 0.00 | 0.00 | 0.00 | 74 | 1012.0 |
| 20260510213037 | 48 | 284 | 2.0 | 9.0 | 0.00 | 0.00 | 0.00 | 74 | 1012.0 |
| 20260510212539 | 49 | 5 | 1.0 | 9.0 | 0.00 | 0.00 | 0.00 | 74 | 1012.0 |
| 20260510212036 | 49 | 318 | 2.0 | 8.0 | 0.00 | 0.00 | 0.00 | 75 | 1012.0 |
| 20260510211536 | 49 | 55 | 2.0 | 6.0 | 0.00 | 0.00 | 0.00 | 75 | 1012.0 |
| 20260510211035 | 49 | 275 | 2.0 | 6.0 | 0.00 | 0.00 | 0.00 | 75 | 1012.0 |
| 20260510210533 | 49 | 323 | 2.0 | 4.0 | 0.00 | 0.00 | 0.00 | 75 | 1012.0 |
| 20260510210033 | 49 | 287 | 2.0 | 5.0 | 0.00 | 0.00 | 0.00 | 75 | 1012.0 |
| 20260510205533 | 49 | 316 | 2.0 | 9.0 | 0.00 | 0.00 | 0.00 | 75 | 1012.2 |
| 20260510205033 | 49 | 351 | 3.0 | 7.0 | 0.00 | 0.00 | 0.00 | 75 | 1012.2 |
| 20260510204532 | 49 | 44 | 2.0 | 11.0 | 0.00 | 0.00 | 0.00 | 75 | 1012.3 |
| 20260510204032 | 49 | 355 | 2.0 | 11.0 | 0.00 | 0.00 | 0.00 | 75 | 1012.2 |
| 20260510203532 | 49 | 53 | 2.0 | 9.0 | 0.00 | 0.00 | 0.00 | 75 | 1012.2 |
| 20260510203030 | 49 | 69 | 1.0 | 10.0 | 0.00 | 0.00 | 0.00 | 75 | 1012.2 |
| 20260510202529 | 50 | 46 | 3.0 | 10.0 | 0.00 | 0.00 | 0.00 | 75 | 1012.3 |
| 20260510202028 | 50 | 53 | 2.0 | 7.0 | 0.00 | 0.00 | 0.00 | 75 | 1012.3 |
| 20260510201528 | 50 | 20 | 1.0 | 9.0 | 0.00 | 0.00 | 0.00 | 75 | 1012.4 |
| 20260510201029 | 50 | 57 | 3.0 | 12.0 | 0.00 | 0.00 | 0.00 | 74 | 1012.5 |
| 20260510200526 | 50 | 66 | 5.0 | 12.0 | 0.00 | 0.00 | 0.00 | 75 | 1012.5 |
| 20260510200030 | 50 | 292 | 1.0 | 8.0 | 0.00 | 0.00 | 0.00 | 75 | 1012.6 |
| 20260510195525 | 50 | 299 | 1.0 | 8.0 | 0.00 | 0.00 | 0.00 | 75 | 1012.6 |
| 20260510195025 | 50 | 292 | 3.0 | 8.0 | 0.00 | 0.00 | 0.00 | 75 | 1012.6 |
| 20260510194537 | 50 | 130 | 3.0 | 9.0 | 0.00 | 0.00 | 0.00 | 75 | 1012.5 |
| 20260510194025 | 50 | 34 | 2.0 | 10.0 | 0.00 | 0.00 | 0.00 | 75 | 1012.5 |
| 20260510193524 | 51 | 298 | 3.0 | 10.0 | 0.00 | 0.00 | 0.00 | 75 | 1012.5 |
| 20260510193024 | 51 | 323 | 2.0 | 8.0 | 0.00 | 0.00 | 0.00 | 75 | 1012.6 |
| 20260510192523 | 51 | 39 | 3.0 | 8.0 | 0.00 | 0.00 | 0.00 | 75 | 1012.6 |
| 20260510192022 | 51 | 293 | 3.0 | 8.0 | 0.00 | 0.00 | 0.00 | 74 | 1012.6 |
| 20260510191526 | 51 | 311 | 2.0 | 11.0 | 0.00 | 0.00 | 0.00 | 74 | 1012.7 |
| 20260510191022 | 51 | 313 | 4.0 | 12.0 | 0.00 | 0.00 | 0.00 | 74 | 1012.7 |
| 20260510190522 | 51 | 5 | 3.0 | 12.0 | 0.00 | 0.00 | 0.00 | 73 | 1012.7 |
| 20260510190022 | 51 | 360 | 3.0 | 8.0 | 0.00 | 0.00 | 0.00 | 73 | 1012.8 |
| 20260510185519 | 51 | 311 | 2.0 | 7.0 | 0.00 | 0.00 | 0.00 | 73 | 1012.8 |
| 20260510185019 | 51 | 274 | 2.0 | 8.0 | 0.00 | 0.00 | 0.00 | 72 | 1012.9 |
| 20260510184518 | 52 | 48 | 2.0 | 9.0 | 0.00 | 0.00 | 0.00 | 72 | 1012.9 |
| 20260510184017 | 52 | 327 | 3.0 | 9.0 | 0.00 | 0.00 | 0.00 | 72 | 1013.0 |
| 20260510183520 | 52 | 32 | 3.0 | 9.0 | 0.00 | 0.00 | 0.00 | 72 | 1012.9 |
| 20260510183018 | 52 | 321 | 3.0 | 14.0 | 0.00 | 0.00 | 0.00 | 71 | 1013.0 |
| 20260510182518 | 52 | 15 | 4.0 | 14.0 | 0.00 | 0.00 | 0.00 | 71 | 1013.0 |
| 20260510182017 | 52 | 60 | 3.0 | 10.0 | 0.00 | 0.00 | 0.00 | 71 | 1013.0 |
| 20260510181518 | 52 | 5 | 2.0 | 8.0 | 0.00 | 0.00 | 0.00 | 72 | 1013.0 |
| 20260510181017 | 52 | 71 | 4.0 | 11.0 | 0.00 | 0.00 | 0.00 | 72 | 1013.1 |
| 20260510180516 | 52 | 304 | 4.0 | 11.0 | 0.00 | 0.00 | 0.00 | 72 | 1013.1 |
| 20260510180015 | 53 | 340 | 3.0 | 11.0 | 0.00 | 0.00 | 0.00 | 72 | 1013.0 |
| 20260510175515 | 53 | 63 | 4.0 | 11.0 | 0.00 | 0.00 | 0.00 | 71 | 1013.0 |
| 20260510175017 | 53 | 74 | 3.0 | 11.0 | 0.00 | 0.00 | 0.00 | 71 | 1012.9 |
| 20260510174515 | 53 | 329 | 4.0 | 11.0 | 0.00 | 0.00 | 0.00 | 71 | 1013.0 |
| 20260510174014 | 53 | 62 | 3.0 | 11.0 | 0.00 | 0.00 | 0.00 | 70 | 1013.0 |
| 20260510173517 | 54 | 298 | 4.0 | 13.0 | 0.00 | 0.00 | 0.00 | 69 | 1013.0 |
| 20260510173018 | 54 | 302 | 2.0 | 13.0 | 0.00 | 0.00 | 0.00 | 69 | 1013.0 |
| 20260510172515 | 55 | 304 | 4.0 | 11.0 | 0.00 | 0.00 | 0.00 | 69 | 1013.0 |
| 20260510172014 | 55 | 15 | 4.0 | 12.0 | 0.00 | 0.00 | 0.00 | 69 | 1013.1 |
| 20260510171513 | 55 | 327 | 3.0 | 12.0 | 0.00 | 0.00 | 0.00 | 69 | 1013.0 |
| 20260510171012 | 55 | 301 | 3.0 | 12.0 | 0.00 | 0.00 | 0.00 | 69 | 1013.0 |
| 20260510170512 | 55 | 268 | 5.0 | 10.0 | 0.00 | 0.00 | 0.00 | 69 | 1013.1 |
| 20260510170011 | 55 | 76 | 3.0 | 12.0 | 0.00 | 0.00 | 0.00 | 69 | 1013.1 |
| 20260510165512 | 55 | 271 | 4.0 | 12.0 | 0.00 | 0.00 | 0.00 | 68 | 1013.3 |
| 20260510165010 | 55 | 78 | 4.0 | 11.0 | 0.00 | 0.00 | 0.00 | 69 | 1013.3 |
| 20260510164514 | 55 | 304 | 3.0 | 8.0 | 0.00 | 0.00 | 0.00 | 69 | 1013.2 |
| 20260510164009 | 55 | 323 | 3.0 | 11.0 | 0.00 | 0.00 | 0.00 | 69 | 1013.4 |
| 20260510163509 | 55 | 56 | 4.0 | 11.0 | 0.00 | 0.00 | 0.00 | 69 | 1013.4 |
| 20260510163008 | 55 | 304 | 5.0 | 11.0 | 0.00 | 0.00 | 0.00 | 69 | 1013.5 |
| 20260510162508 | 55 | 31 | 4.0 | 11.0 | 0.00 | 0.00 | 0.00 | 69 | 1013.6 |
| 20260510162010 | 55 | 19 | 4.0 | 11.0 | 0.00 | 0.00 | 0.00 | 70 | 1013.6 |
| 20260510161510 | 55 | 10 | 3.0 | 11.0 | 0.00 | 0.00 | 0.00 | 70 | 1013.7 |
| 20260510161009 | 56 | 52 | 4.0 | 11.0 | 0.00 | 0.00 | 0.00 | 69 | 1013.7 |
| 20260510160507 | 56 | 13 | 3.0 | 10.0 | 0.00 | 0.00 | 0.00 | 69 | 1013.7 |
| 20260510160008 | 56 | 338 | 3.0 | 10.0 | 0.00 | 0.00 | 0.00 | 68 | 1013.7 |
| 20260510155509 | 56 | 28 | 2.0 | 10.0 | 0.00 | 0.00 | 0.00 | 68 | 1013.7 |
| 20260510155007 | 56 | 306 | 4.0 | 10.0 | 0.00 | 0.00 | 0.00 | 68 | 1013.9 |
| 20260510154506 | 57 | 21 | 4.0 | 10.0 | 0.00 | 0.00 | 0.00 | 68 | 1013.8 |
| 20260510154004 | 57 | 286 | 2.0 | 13.0 | 0.00 | 0.00 | 0.00 | 69 | 1013.8 |
| 20260510153508 | 57 | 46 | 4.0 | 13.0 | 0.00 | 0.00 | 0.00 | 68 | 1013.8 |
| 20260510153005 | 57 | 5 | 4.0 | 12.0 | 0.00 | 0.00 | 0.00 | 67 | 1013.9 |
| 20260510152504 | 57 | 66 | 3.0 | 12.0 | 0.00 | 0.00 | 0.00 | 67 | 1014.0 |
| 20260510152002 | 57 | 48 | 3.0 | 9.0 | 0.00 | 0.00 | 0.00 | 68 | 1014.0 |
| 20260510151503 | 57 | 46 | 3.0 | 12.0 | 0.00 | 0.00 | 0.00 | 67 | 1014.0 |
| 20260510151002 | 58 | 275 | 5.0 | 12.0 | 0.00 | 0.00 | 0.00 | 65 | 1014.1 |
| 20260510150503 | 59 | 5 | 5.0 | 11.0 | 0.00 | 0.00 | 0.00 | 65 | 1014.2 |
| 20260510150001 | 59 | 58 | 3.0 | 10.0 | 0.00 | 0.00 | 0.00 | 66 | 1014.2 |
| 20260510145559 | 58 | 348 | 3.0 | 9.0 | 0.00 | 0.00 | 0.00 | 67 | 1014.2 |
| 20260510145059 | 58 | 341 | 3.0 | 10.0 | 0.00 | 0.00 | 0.00 | 67 | 1014.4 |
| 20260510144559 | 58 | 15 | 3.0 | 10.0 | 0.00 | 0.00 | 0.00 | 66 | 1014.4 |
| 20260510144059 | 58 | 46 | 3.0 | 12.0 | 0.00 | 0.00 | 0.00 | 67 | 1014.4 |
| 20260510143557 | 58 | 63 | 3.0 | 12.0 | 0.00 | 0.00 | 0.00 | 66 | 1014.5 |
| 20260510143109 | 58 | 49 | 2.0 | 12.0 | 0.00 | 0.00 | 0.00 | 67 | 1014.5 |
| 20260510142558 | 58 | 11 | 3.0 | 12.0 | 0.00 | 0.00 | 0.00 | 66 | 1014.5 |
| 20260510142057 | 59 | 350 | 4.0 | 9.0 | 0.00 | 0.00 | 0.00 | 66 | 1014.4 |
| 20260510141601 | 59 | 70 | 4.0 | 10.0 | 0.00 | 0.00 | 0.00 | 66 | 1014.4 |
| 20260510141056 | 60 | 360 | 4.0 | 10.0 | 0.00 | 0.00 | 0.00 | 64 | 1014.4 |
| 20260510140658 | 60 | 77 | 3.0 | 9.0 | 0.00 | 0.00 | 0.00 | 64 | 1014.5 |
| 20260510140055 | 60 | 48 | 2.0 | 9.0 | 0.00 | 0.00 | 0.00 | 64 | 1014.4 |
| 20260510135557 | 60 | 329 | 3.0 | 9.0 | 0.00 | 0.00 | 0.00 | 65 | 1014.5 |
| 20260510135054 | 59 | 315 | 1.0 | 11.0 | 0.00 | 0.00 | 0.00 | 65 | 1014.5 |
| 20260510134558 | 60 | 38 | 4.0 | 10.0 | 0.00 | 0.00 | 0.00 | 64 | 1014.6 |
| 20260510134056 | 60 | 277 | 3.0 | 14.0 | 0.00 | 0.00 | 0.00 | 64 | 1014.6 |
| 20260510133551 | 60 | 27 | 3.0 | 14.0 | 0.00 | 0.00 | 0.00 | 63 | 1014.6 |
| 20260510133051 | 60 | 38 | 6.0 | 12.0 | 0.00 | 0.00 | 0.00 | 62 | 1014.7 |
| 20260510132553 | 60 | 280 | 3.0 | 8.0 | 0.00 | 0.00 | 0.00 | 64 | 1014.7 |
| 20260510132050 | 60 | 72 | 3.0 | 10.0 | 0.00 | 0.00 | 0.00 | 63 | 1014.9 |
| 20260510131552 | 61 | 306 | 2.0 | 7.0 | 0.00 | 0.00 | 0.00 | 62 | 1014.9 |
| 20260510131049 | 61 | 306 | 2.0 | 11.0 | 0.00 | 0.00 | 0.00 | 62 | 1014.9 |
| 20260510130548 | 61 | 263 | 3.0 | 12.0 | 0.00 | 0.00 | 0.00 | 61 | 1015.0 |
| 20260510130048 | 60 | 286 | 3.0 | 12.0 | 0.00 | 0.00 | 0.00 | 63 | 1015.0 |
| 20260510125550 | 60 | 94 | 4.0 | 11.0 | 0.00 | 0.00 | 0.00 | 61 | 1015.1 |
| 20260510125048 | 60 | 78 | 3.0 | 9.0 | 0.00 | 0.00 | 0.00 | 61 | 1015.1 |
| 20260510124550 | 60 | 267 | 3.0 | 11.0 | 0.00 | 0.00 | 0.00 | 61 | 1015.1 |
| 20260510124046 | 61 | 271 | 4.0 | 17.0 | 0.00 | 0.00 | 0.00 | 61 | 1015.1 |
| 20260510123546 | 61 | 32 | 4.0 | 11.0 | 0.00 | 0.00 | 0.00 | 61 | 1015.2 |
| 20260510123046 | 61 | 74 | 4.0 | 11.0 | 0.00 | 0.00 | 0.00 | 60 | 1015.1 |
| 20260510122545 | 61 | 288 | 2.0 | 10.0 | 0.00 | 0.00 | 0.00 | 58 | 1015.3 |
| 20260510122044 | 61 | 27 | 4.0 | 11.0 | 0.00 | 0.00 | 0.00 | 60 | 1015.2 |
| 20260510121544 | 61 | 32 | 5.0 | 11.0 | 0.00 | 0.00 | 0.00 | 60 | 1015.3 |
| 20260510121046 | 61 | 310 | 3.0 | 12.0 | 0.00 | 0.00 | 0.00 | 61 | 1015.4 |
| 20260510120541 | 61 | 344 | 4.0 | 14.0 | 0.00 | 0.00 | 0.00 | 58 | 1015.5 |
| 20260510120041 | 61 | 334 | 5.0 | 14.0 | 0.00 | 0.00 | 0.00 | 60 | 1015.5 |
| 20260510115541 | 61 | 69 | 2.0 | 11.0 | 0.00 | 0.00 | 0.00 | 61 | 1015.6 |
| 20260510115040 | 61 | 265 | 3.0 | 11.0 | 0.00 | 0.00 | 0.00 | 60 | 1015.6 |
| 20260510114540 | 61 | 325 | 3.0 | 11.0 | 0.00 | 0.00 | 0.00 | 60 | 1015.6 |
| 20260510114038 | 61 | 220 | 1.0 | 10.0 | 0.00 | 0.00 | 0.00 | 64 | 1015.6 |
| 20260510113538 | 60 | 65 | 3.0 | 11.0 | 0.00 | 0.00 | 0.00 | 62 | 1015.5 |
| 20260510113037 | 60 | 282 | 3.0 | 11.0 | 0.00 | 0.00 | 0.00 | 62 | 1015.7 |
| 20260510112537 | 60 | 348 | 4.0 | 10.0 | 0.00 | 0.00 | 0.00 | 62 | 1015.8 |
| 20260510112037 | 61 | 294 | 2.0 | 8.0 | 0.00 | 0.00 | 0.00 | 63 | 1015.8 |
| 20260510111541 | 61 | 346 | 3.0 | 10.0 | 0.00 | 0.00 | 0.00 | 63 | 1015.9 |
| 20260510111033 | 60 | 34 | 3.0 | 10.0 | 0.00 | 0.00 | 0.00 | 63 | 1016.0 |
| 20260510110532 | 60 | 346 | 5.0 | 10.0 | 0.00 | 0.00 | 0.00 | 62 | 1016.0 |
| 20260510110037 | 60 | 57 | 4.0 | 9.0 | 0.00 | 0.00 | 0.00 | 62 | 1016.0 |
| 20260510105531 | 60 | 73 | 3.0 | 9.0 | 0.00 | 0.00 | 0.00 | 64 | 1016.0 |
| 20260510105030 | 60 | 333 | 2.0 | 8.0 | 0.00 | 0.00 | 0.00 | 65 | 1016.0 |
| 20260510104533 | 59 | 328 | 3.0 | 10.0 | 0.00 | 0.00 | 0.00 | 66 | 1016.2 |
| 20260510104029 | 60 | 46 | 4.0 | 10.0 | 0.00 | 0.00 | 0.00 | 66 | 1016.2 |
| 20260510103529 | 60 | 67 | 3.0 | 8.0 | 0.00 | 0.00 | 0.00 | 64 | 1016.2 |
| 20260510103028 | 60 | 17 | 2.0 | 8.0 | 0.00 | 0.00 | 0.00 | 67 | 1016.2 |
| 20260510102528 | 59 | 279 | 3.0 | 8.0 | 0.00 | 0.00 | 0.00 | 66 | 1016.3 |
| 20260510102026 | 59 | 301 | 3.0 | 10.0 | 0.00 | 0.00 | 0.00 | 67 | 1016.3 |
| 20260510101524 | 59 | 275 | 3.0 | 10.0 | 0.00 | 0.00 | 0.00 | 67 | 1016.3 |
| 20260510101023 | 58 | 36 | 3.0 | 6.0 | 0.00 | 0.00 | 0.00 | 67 | 1016.4 |
| 20260510100523 | 58 | 295 | 2.0 | 8.0 | 0.00 | 0.00 | 0.00 | 67 | 1016.5 |
| 20260510100023 | 58 | 61 | 3.0 | 8.0 | 0.00 | 0.00 | 0.00 | 69 | 1016.4 |
| 20260510095522 | 58 | 70 | 1.0 | 9.0 | 0.00 | 0.00 | 0.00 | 70 | 1016.5 |
| 20260510095023 | 58 | 69 | 3.0 | 9.0 | 0.00 | 0.00 | 0.00 | 70 | 1016.5 |
| 20260510094522 | 57 | 9 | 3.0 | 15.0 | 0.00 | 0.00 | 0.00 | 71 | 1016.5 |
| 20260510094020 | 57 | 58 | 3.0 | 15.0 | 0.00 | 0.00 | 0.00 | 72 | 1016.5 |
| 20260510093522 | 58 | 304 | 3.0 | 8.0 | 0.00 | 0.00 | 0.00 | 70 | 1016.4 |
| 20260510093020 | 58 | 57 | 3.0 | 9.0 | 0.00 | 0.00 | 0.00 | 69 | 1016.5 |
| 20260510092520 | 58 | 293 | 2.0 | 8.0 | 0.00 | 0.00 | 0.00 | 68 | 1016.5 |
| 20260510092018 | 58 | 44 | 2.0 | 12.0 | 0.00 | 0.00 | 0.00 | 70 | 1016.5 |
| 20260510091518 | 58 | 344 | 1.0 | 12.0 | 0.00 | 0.00 | 0.00 | 70 | 1016.6 |
| 20260510091017 | 58 | 282 | 3.0 | 9.0 | 0.00 | 0.00 | 0.00 | 70 | 1016.6 |
| 20260510090517 | 58 | 38 | 2.0 | 9.0 | 0.00 | 0.00 | 0.00 | 70 | 1016.6 |
| 20260510090018 | 58 | 306 | 3.0 | 10.0 | 0.00 | 0.00 | 0.00 | 70 | 1016.6 |
| 20260510085516 | 58 | 269 | 2.0 | 11.0 | 0.00 | 0.00 | 0.00 | 70 | 1016.6 |
| 20260510085014 | 58 | 22 | 3.0 | 11.0 | 0.00 | 0.00 | 0.00 | 72 | 1016.7 |
| 20260510084617 | 58 | 21 | 4.0 | 8.0 | 0.00 | 0.00 | 0.00 | 71 | 1016.8 |
| 20260510084013 | 57 | 296 | 2.0 | 8.0 | 0.00 | 0.00 | 0.00 | 73 | 1016.8 |
| 20260510083517 | 57 | 319 | 3.0 | 8.0 | 0.00 | 0.00 | 0.00 | 73 | 1016.8 |
| 20260510083013 | 57 | 281 | 1.0 | 6.0 | 0.00 | 0.00 | 0.00 | 73 | 1016.8 |
| 20260510082512 | 58 | 293 | 1.0 | 7.0 | 0.00 | 0.00 | 0.00 | 73 | 1016.8 |
| 20260510082012 | 58 | 343 | 1.0 | 8.0 | 0.00 | 0.00 | 0.00 | 73 | 1016.8 |
| 20260510081532 | 58 | 310 | 2.0 | 6.0 | 0.00 | 0.00 | 0.00 | 73 | 1016.9 |
| 20260510081010 | 57 | 46 | 1.0 | 12.0 | 0.00 | 0.00 | 0.00 | 73 | 1016.9 |
| 20260510080509 | 57 | 58 | 3.0 | 12.0 | 0.00 | 0.00 | 0.00 | 72 | 1016.9 |
| 20260510080012 | 57 | 304 | 3.0 | 6.0 | 0.00 | 0.00 | 0.00 | 71 | 1016.8 |
| 20260510075508 | 57 | 291 | 2.0 | 6.0 | 0.00 | 0.00 | 0.00 | 72 | 1016.9 |
| 20260510075008 | 57 | 296 | 2.0 | 13.0 | 0.00 | 0.00 | 0.00 | 73 | 1016.9 |
| 20260510074508 | 57 | 278 | 3.0 | 13.0 | 0.00 | 0.00 | 0.00 | 72 | 1016.8 |
| 20260510074012 | 57 | 360 | 2.0 | 7.0 | 0.00 | 0.00 | 0.00 | 72 | 1016.8 |
| 20260510073511 | 57 | 24 | 2.0 | 8.0 | 0.00 | 0.00 | 0.00 | 72 | 1016.7 |
| 20260510073006 | 57 | 347 | 2.0 | 6.0 | 0.00 | 0.00 | 0.00 | 72 | 1016.8 |
| 20260510072508 | 57 | 309 | 2.0 | 6.0 | 0.00 | 0.00 | 0.00 | 73 | 1016.8 |
| 20260510072004 | 56 | 52 | 1.0 | 10.0 | 0.00 | 0.00 | 0.00 | 73 | 1016.8 |
| 20260510071502 | 56 | 78 | 2.0 | 10.0 | 0.00 | 0.00 | 0.00 | 71 | 1016.8 |
| 20260510071001 | 55 | 59 | 2.0 | 9.0 | 0.00 | 0.00 | 0.00 | 71 | 1016.8 |
| 20260510070600 | 55 | 296 | 3.0 | 9.0 | 0.00 | 0.00 | 0.00 | 72 | 1016.9 |
| 20260510070059 | 55 | 34 | 3.0 | 8.0 | 0.00 | 0.00 | 0.00 | 72 | 1017.0 |
| 20260510065600 | 55 | 63 | 2.0 | 8.0 | 0.00 | 0.00 | 0.00 | 73 | 1017.0 |
| 20260510065058 | 55 | 297 | 3.0 | 9.0 | 0.00 | 0.00 | 0.00 | 73 | 1016.9 |
| 20260510064602 | 54 | 317 | 1.0 | 9.0 | 0.00 | 0.00 | 0.00 | 75 | 1016.9 |
| 20260510064057 | 54 | 348 | 1.0 | 8.0 | 0.00 | 0.00 | 0.00 | 76 | 1017.0 |
| 20260510063557 | 54 | 294 | 1.0 | 9.0 | 0.00 | 0.00 | 0.00 | 76 | 1017.0 |
| 20260510063057 | 54 | 63 | 3.0 | 9.0 | 0.00 | 0.00 | 0.00 | 76 | 1017.0 |
| 20260510062556 | 54 | 28 | 2.0 | 6.0 | 0.00 | 0.00 | 0.00 | 78 | 1017.1 |
| 20260510062056 | 53 | 334 | 1.0 | 5.0 | 0.00 | 0.00 | 0.00 | 78 | 1017.0 |
| 20260510061556 | 53 | 25 | 2.0 | 5.0 | 0.00 | 0.00 | 0.00 | 79 | 1016.9 |
| 20260510061055 | 53 | 312 | 1.0 | 8.0 | 0.00 | 0.00 | 0.00 | 80 | 1016.9 |
| 20260510060556 | 53 | 290 | 0.0 | 8.0 | 0.00 | 0.00 | 0.00 | 80 | 1016.9 |
| 20260510060056 | 53 | 337 | 0.0 | 5.0 | 0.00 | 0.00 | 0.00 | 80 | 1016.9 |
| 20260510055555 | 52 | 271 | 1.0 | 5.0 | 0.00 | 0.00 | 0.00 | 81 | 1017.0 |
| 20260510055053 | 52 | 46 | 2.0 | 5.0 | 0.00 | 0.00 | 0.00 | 81 | 1017.0 |
| 20260510054553 | 52 | 271 | 0.0 | 4.0 | 0.00 | 0.00 | 0.00 | 82 | 1017.1 |
| 20260510054054 | 52 | 308 | 1.0 | 5.0 | 0.00 | 0.00 | 0.00 | 82 | 1017.1 |
| 20260510053552 | 51 | 289 | 1.0 | 5.0 | 0.00 | 0.00 | 0.00 | 82 | 1017.2 |
| 20260510053106 | 51 | 312 | 1.0 | 4.0 | 0.00 | 0.00 | 0.00 | 82 | 1017.1 |
| 20260510052552 | 51 | 308 | 1.0 | 4.0 | 0.00 | 0.00 | 0.00 | 82 | 1017.0 |
| 20260510052052 | 51 | 275 | 1.0 | 4.0 | 0.00 | 0.00 | 0.00 | 83 | 1017.0 |
| 20260510051602 | 51 | 305 | 1.0 | 4.0 | 0.00 | 0.00 | 0.00 | 83 | 1017.0 |
| 20260510051049 | 51 | 10 | 1.0 | 4.0 | 0.00 | 0.00 | 0.00 | 83 | 1017.0 |
| 20260510050549 | 51 | 317 | 0.0 | 3.0 | 0.00 | 0.00 | 0.00 | 83 | 1017.0 |
| 20260510050059 | 51 | 300 | 1.0 | 3.0 | 0.00 | 0.00 | 0.00 | 83 | 1017.0 |
| 20260510045549 | 51 | 306 | 0.0 | 3.0 | 0.00 | 0.00 | 0.00 | 83 | 1016.8 |
| 20260510045054 | 51 | 267 | 1.0 | 3.0 | 0.00 | 0.00 | 0.00 | 83 | 1016.8 |
| 20260510044602 | 51 | 330 | 0.0 | 5.0 | 0.00 | 0.00 | 0.00 | 84 | 1016.8 |
| 20260510044048 | 50 | 288 | 1.0 | 3.0 | 0.00 | 0.00 | 0.00 | 84 | 1016.7 |
| 20260510043548 | 50 | 311 | 1.0 | 3.0 | 0.00 | 0.00 | 0.00 | 84 | 1016.6 |
| 20260510043054 | 50 | 303 | 0.0 | 4.0 | 0.00 | 0.00 | 0.00 | 84 | 1016.6 |
| 20260510042548 | 50 | 305 | 1.0 | 4.0 | 0.00 | 0.00 | 0.00 | 84 | 1016.6 |
| 20260510042049 | 50 | 350 | 0.0 | 4.0 | 0.00 | 0.00 | 0.00 | 84 | 1016.6 |
| 20260510041545 | 50 | 328 | 0.0 | 4.0 | 0.00 | 0.00 | 0.00 | 84 | 1016.7 |
| 20260510041044 | 50 | 297 | 1.0 | 3.0 | 0.00 | 0.00 | 0.00 | 84 | 1016.7 |
| 20260510040543 | 50 | 36 | 0.0 | 4.0 | 0.00 | 0.00 | 0.00 | 84 | 1016.7 |
| 20260510040044 | 50 | 317 | 1.0 | 4.0 | 0.00 | 0.00 | 0.00 | 84 | 1016.7 |
| 20260510035541 | 50 | 313 | 1.0 | 2.0 | 0.00 | 0.00 | 0.00 | 84 | 1016.7 |
| 20260510035041 | 50 | 341 | 0.0 | 3.0 | 0.00 | 0.00 | 0.00 | 84 | 1016.7 |
| 20260510034542 | 50 | 311 | 1.0 | 3.0 | 0.00 | 0.00 | 0.00 | 85 | 1016.8 |
| 20260510034040 | 50 | 318 | 0.0 | 3.0 | 0.00 | 0.00 | 0.00 | 85 | 1016.8 |
| 20260510033538 | 50 | 304 | 1.0 | 3.0 | 0.00 | 0.00 | 0.00 | 85 | 1016.8 |
| 20260510033055 | 50 | 331 | 0.0 | 4.0 | 0.00 | 0.00 | 0.00 | 85 | 1016.9 |
| 20260510032541 | 50 | 299 | 0.0 | 4.0 | 0.00 | 0.00 | 0.00 | 85 | 1017.0 |
| 20260510032037 | 50 | 317 | 1.0 | 4.0 | 0.00 | 0.00 | 0.00 | 85 | 1016.9 |
| 20260510031539 | 50 | 294 | 1.0 | 3.0 | 0.00 | 0.00 | 0.00 | 86 | 1017.1 |
| 20260510031034 | 50 | 313 | 0.0 | 2.0 | 0.00 | 0.00 | 0.00 | 86 | 1017.2 |
| 20260510030533 | 50 | 315 | 0.0 | 4.0 | 0.00 | 0.00 | 0.00 | 86 | 1017.2 |
| 20260510030042 | 50 | 293 | 0.0 | 2.0 | 0.00 | 0.00 | 0.00 | 86 | 1017.3 |
| 20260510025533 | 50 | 329 | 0.0 | 3.0 | 0.00 | 0.00 | 0.00 | 86 | 1017.3 |
| 20260510025035 | 50 | 38 | 0.0 | 3.0 | 0.00 | 0.00 | 0.00 | 86 | 1017.2 |
| 20260510024646 | 50 | 291 | 0.0 | 2.0 | 0.00 | 0.00 | 0.00 | 86 | 1017.2 |
| 20260510024031 | 50 | 297 | 0.0 | 2.0 | 0.00 | 0.00 | 0.00 | 86 | 1017.2 |
| 20260510023531 | 50 | 306 | 0.0 | 2.0 | 0.00 | 0.00 | 0.00 | 86 | 1017.2 |
| 20260510023031 | 50 | 313 | 0.0 | 3.0 | 0.00 | 0.00 | 0.00 | 85 | 1017.1 |
| 20260510022530 | 51 | 319 | 0.0 | 3.0 | 0.00 | 0.00 | 0.00 | 85 | 1017.1 |
| 20260510022034 | 51 | 308 | 1.0 | 3.0 | 0.00 | 0.00 | 0.00 | 85 | 1017.1 |
| 20260510021532 | 51 | 335 | 0.0 | 3.0 | 0.00 | 0.00 | 0.00 | 85 | 1017.1 |
| 20260510021028 | 51 | 328 | 0.0 | 3.0 | 0.00 | 0.00 | 0.00 | 85 | 1017.2 |
| 20260510020528 | 51 | 315 | 1.0 | 3.0 | 0.00 | 0.00 | 0.00 | 85 | 1017.2 |
| 20260510020029 | 51 | 320 | 0.0 | 3.0 | 0.00 | 0.00 | 0.00 | 84 | 1017.2 |
| 20260510015527 | 51 | 307 | 1.0 | 3.0 | 0.00 | 0.00 | 0.00 | 84 | 1017.1 |
| 20260510015031 | 51 | 333 | 0.0 | 3.0 | 0.00 | 0.00 | 0.00 | 84 | 1017.1 |
| 20260510014534 | 51 | 288 | 0.0 | 3.0 | 0.00 | 0.00 | 0.00 | 84 | 1017.1 |
| 20260510014028 | 51 | 326 | 0.0 | 3.0 | 0.00 | 0.00 | 0.00 | 84 | 1017.2 |
| 20260510013525 | 51 | 348 | 1.0 | 3.0 | 0.00 | 0.00 | 0.00 | 84 | 1017.3 |
| 20260510013025 | 51 | 315 | 0.0 | 2.0 | 0.00 | 0.00 | 0.00 | 84 | 1017.3 |
| 20260510012525 | 51 | 46 | 0.0 | 2.0 | 0.00 | 0.00 | 0.00 | 84 | 1017.3 |
| 20260510012024 | 51 | 313 | 0.0 | 3.0 | 0.00 | 0.00 | 0.00 | 84 | 1017.3 |
| 20260510011524 | 51 | 292 | 0.0 | 3.0 | 0.00 | 0.00 | 0.00 | 84 | 1017.2 |
| 20260510011024 | 51 | 314 | 0.0 | 4.0 | 0.00 | 0.00 | 0.00 | 83 | 1017.3 |
| 20260510010523 | 51 | 321 | 0.0 | 4.0 | 0.00 | 0.00 | 0.00 | 83 | 1017.3 |
| 20260510010026 | 51 | 312 | 0.0 | 3.0 | 0.00 | 0.00 | 0.00 | 83 | 1017.3 |
| 20260510005522 | 51 | 292 | 1.0 | 3.0 | 0.00 | 0.00 | 0.00 | 83 | 1017.4 |
| 20260510005023 | 52 | 302 | 0.0 | 3.0 | 0.00 | 0.00 | 0.00 | 83 | 1017.4 |
| 20260510004521 | 52 | 25 | 0.0 | 2.0 | 0.00 | 0.00 | 0.00 | 82 | 1017.4 |
| 20260510004020 | 52 | 280 | 0.0 | 2.0 | 0.00 | 0.00 | 0.00 | 82 | 1017.4 |
| 20260510003520 | 52 | 324 | 0.0 | 2.0 | 0.00 | 0.00 | 0.00 | 82 | 1017.5 |
| 20260510003019 | 52 | 299 | 0.0 | 4.0 | 0.00 | 0.00 | 0.00 | 81 | 1017.5 |
| 20260510002520 | 52 | 42 | 1.0 | 4.0 | 0.00 | 0.00 | 0.00 | 81 | 1017.5 |
| 20260510002022 | 52 | 298 | 0.0 | 3.0 | 0.00 | 0.00 | 0.00 | 81 | 1017.4 |
| 20260510001518 | 52 | 324 | 1.0 | 2.0 | 0.00 | 0.00 | 0.00 | 81 | 1017.5 |
| 20260510001017 | 53 | 319 | 1.0 | 2.0 | 0.00 | 0.00 | 0.00 | 81 | 1017.4 |
| 20260510000516 | 53 | 327 | 0.0 | 2.0 | 0.00 | 0.00 | 0.00 | 80 | 1017.5 |
| 20260510000018 | 53 | 325 | 0.0 | 3.0 | 0.00 | 0.00 | 0.00 | 80 | 1017.5 |
| 20260509235514 | 53 | 296 | 1.0 | 3.0 | 0.00 | 0.00 | 0.00 | 80 | 1017.6 |
| 20260509235015 | 53 | 5 | 0.0 | 3.0 | 0.00 | 0.00 | 0.00 | 80 | 1017.7 |
| 20260509234520 | 53 | 285 | 1.0 | 3.0 | 0.00 | 0.00 | 0.00 | 80 | 1017.7 |
| 20260509234016 | 53 | 330 | 0.0 | 3.0 | 0.00 | 0.00 | 0.00 | 79 | 1017.7 |
| 20260509233513 | 53 | 342 | 0.0 | 4.0 | 0.00 | 0.00 | 0.00 | 79 | 1017.7 |
| 20260509233012 | 53 | 328 | 1.0 | 4.0 | 0.00 | 0.00 | 0.00 | 79 | 1017.7 |
| 20260509232511 | 53 | 306 | 0.0 | 2.0 | 0.00 | 0.00 | 0.00 | 78 | 1017.8 |
| 20260509232011 | 54 | 336 | 0.0 | 2.0 | 0.00 | 0.00 | 0.00 | 78 | 1017.8 |
| 20260509231513 | 54 | 315 | 0.0 | 3.0 | 0.00 | 0.00 | 0.00 | 78 | 1017.8 |
| 20260509231009 | 54 | 305 | 0.0 | 3.0 | 0.00 | 0.00 | 0.00 | 78 | 1017.8 |
| 20260509230509 | 54 | 317 | 0.0 | 3.0 | 0.00 | 0.00 | 0.00 | 78 | 1017.8 |
| 20260509230017 | 54 | 300 | 1.0 | 3.0 | 0.00 | 0.00 | 0.00 | 77 | 1017.7 |
| 20260509225509 | 54 | 343 | 0.0 | 3.0 | 0.00 | 0.00 | 0.00 | 77 | 1017.7 |
| 20260509225009 | 54 | 294 | 0.0 | 3.0 | 0.00 | 0.00 | 0.00 | 77 | 1017.8 |
| 20260509224507 | 54 | 350 | 0.0 | 3.0 | 0.00 | 0.00 | 0.00 | 77 | 1017.7 |
| 20260509224006 | 54 | 323 | 1.0 | 3.0 | 0.00 | 0.00 | 0.00 | 76 | 1017.8 |
| 20260509223506 | 54 | 339 | 1.0 | 4.0 | 0.00 | 0.00 | 0.00 | 76 | 1017.8 |
| 20260509223008 | 54 | 298 | 0.0 | 4.0 | 0.00 | 0.00 | 0.00 | 76 | 1017.8 |
| 20260509222505 | 55 | 5 | 1.0 | 4.0 | 0.00 | 0.00 | 0.00 | 76 | 1017.8 |